Weather in Uralsky

Russia / Sverdlovsk Oblast     56°40′31″N   61°04′55″E
temp.,
°C
wind,
m/s
gust,
m/s
humid.,
%
clouds,
%
prec.,
mm/h
press.,
hPa
HPBL,
m
9 may, sun
sun923:00+12n2475100 0.2 101778
02:00+12n2372100 0.0 101651
05:00+12n2576100 0.1 1016105
08:00+15n1258100 0.0 1016164
11:00+20ne233465 0.0 1016959
14:00+20n2432100 0.0 1016988
17:00+20ne2535100 0.0 10171161
20:00+16ne2248100 0.0 101818
10 may, mon
mon1023:00+12ne2360100 0.0 101945
02:00+12ene1164100 0.1 102111
05:00+11e227187 0.1 102243
08:00+15e355162 0.0 1023403
11:00+18ene453893 0.0 10241166
14:00+21e45288 0.0 10241939
17:00+20ese45285 0.0 10241833
20:00+16e36413 0.0 1025132
11 may, tue
tue1123:00+11sse22500 0.0 102714
02:00+9s11525 0.0 102710
05:00+8ssw115610 0.0 102810
08:00+14ssw234267 0.0 1028250
11:00+18s2230100 0.0 10291123
14:00+20ssw2227100 0.0 10281436
17:00+20wsw1227100 0.0 10281548
20:00+17ssw11395 0.0 102811
12 may, wed
wed1223:00+13sw22455 0.0 102825
02:00+11wnw2454100 0.0 102961
05:00+11nw2286100 0.0 102932
08:00+15nnw356699 0.0 1029434
11:00+20nnw354356 0.0 10291415
14:00+22n343250 0.0 10281894
17:00+22nnw353219 0.0 10282087
20:00+19nnw225096 0.0 102814
13 may, thu
thu1323:00+14nw226530 0.0 102819
02:00+13nw227363 0.0 102935
05:00+12nw2277100 0.0 102938
08:00+17wnw245894 0.0 1029293
11:00+22nw354290 0.0 10281648
14:00+25nnw463361 0.0 10272143
17:00+26nnw463110 0.0 10262268
20:00+21nnw224743 0.0 102728